[[{"header":{"parameterUnit":"m.s-1","parameterCategory":1,"la1":30.2991,"la2":30.254,"lo1":-89.0895,"lo2":-89.0444,"dy":0.0017,"dx":0.0017,"nx":28,"ny":28,"refTime":"2023-09-14T21:00:00:Z","depth":0,"parameterNumber":2,"parameterNumberName":"U-component_of_WINDS"},"data":[0,0,0,0,0,0,0,0,0,0,0,0,0,0,0,0,0,0,0,0,0,0,0,0,0,0,0,0,0,0,0,0,0,0,0,0,0,0,0,0,0,0,0,0,0,0,0,0,0,0,0,0,0,0,0,0,0,0,-1.2349,-1.2349,0,-1.2332,-1.2332,-1.2332,-1.2259,-1.2258,-1.2256,-1.2254,-1.2238,-1.224,-1.2241,0,0,0,0,0,0,0,0,0,0,0,0,0,-1.2321,-1.2322,-1.2349,-1.2349,-1.2349,-1.2332,-1.2332,-1.2332,-1.226,-1.2258,-1.2256,-1.2254,-1.2238,-1.2239,-1.2241,0,0,0,0,0,0,0,0,0,0,0,0,0,-1.2322,-1.2322,-1.2349,-1.2311,-1.2307,-1.2332,-1.2332,-1.2332,-1.226,-1.2258,-1.2255,-1.2253,-1.2238,-1.2239,-1.2241,-1.2302,0,0,-1.2246,-1.2247,0,0,0,0,0,0,0,0,-1.2322,-1.2323,-1.2317,-1.2314,-1.231,-1.2295,-1.2316,-1.2322,-1.2261,-1.2278,-1.2254,-1.2251,-1.226,-1.2259,-1.2262,-1.2301,-1.2301,-1.2246,-1.2247,-1.2248,-1.2249,0,0,0,0,0,0,0,-1.2322,-1.2323,-1.2343,-1.2317,-1.2312,-1.2295,-1.2292,-1.2317,-1.2283,-1.2276,-1.2271,-1.227,-1.2257,-1.226,-1.2261,-1.23,-1.2246,-1.2248,-1.2249,-1.225,-1.2389,-1.2392,0,0,0,0,0,0,-1.2327,-1.2324,-1.2343,-1.2342,-1.231,-1.2298,-1.2294,-1.2302,-1.2283,-1.2277,-1.2272,-1.2267,-1.2258,-1.2259,-1.226,-1.233,-1.2248,-1.225,-1.2251,-1.2387,-1.239,-1.2393,0,0,0,0,0,0,-1.2327,-1.2329,-1.2344,-1.2331,-1.2332,-1.2301,-1.231,-1.2303,-1.2306,-1.2279,-1.2273,-1.2281,-1.2257,-1.2258,-1.2292,-1.2328,-1.2251,-1.2252,-1.2383,-1.2388,-1.2391,-1.247,0,0,0,0,0,0,-1.2326,-1.233,-1.2352,-1.2332,-1.2333,-1.2376,-1.2312,-1.2305,-1.2309,-1.2302,-1.2287,-1.2282,-1.2255,-1.229,-1.2294,-1.2329,-1.2253,-1.238,-1.2385,-1.239,-1.2464,-1.2477,-1.2487,0,0,0,0,0,-1.2325,-1.2376,-1.2354,-1.2357,-1.236,-1.2378,-1.2378,-1.2346,-1.2313,-1.2335,-1.2318,-1.2282,-1.2324,-1.2294,-1.2298,-1.2334,-1.2378,-1.2384,-1.239,-1.2459,-1.2474,-1.2487,0,0,0,0,0,0,-1.2402,-1.2373,-1.2348,-1.2393,-1.2389,-1.2366,-1.2393,-1.2363,-1.2368,-1.2361,-1.2321,-1.2318,-1.2358,-1.235,-1.2317,-1.2392,-1.2345,-1.2352,-1.2396,-1.241,-1.2421,-1.2423,-1.2255,0,0,0,0,0,-1.2424,-1.244,-1.2414,-1.2457,-1.2455,-1.2425,-1.2432,-1.2407,-1.2401,-1.2399,-1.2384,-1.238,-1.2392,-1.2401,-1.241,-1.2463,-1.2458,-1.249,-1.2501,-1.2511,-1.2517,-1.2544,-1.2558,-1.2412,-1.2412,-1.2412,0,0,-1.247,-1.2456,-1.2469,-1.2472,-1.2465,-1.2483,-1.2424,-1.2446,-1.2459,-1.2402,-1.2433,-1.2423,-1.2415,-1.2459,-1.2478,-1.2453,-1.2556,-1.2518,-1.2526,-1.2527,-1.2552,-1.2566,-1.2578,-1.2417,-1.2416,-1.2415,0,0,-1.2562,-1.2553,-1.2587,-1.2582,-1.2573,-1.2552,-1.2561,-1.2542,-1.2533,-1.2563,-1.2521,-1.2536,-1.2558,-1.2554,-1.2556,-1.2647,-1.2614,-1.2651,-1.271,-1.2737,-1.2748,-1.2758,-1.2791,-1.2803,-1.2658,-1.2658,-1.2658,0,-1.262,-1.2645,-1.2609,-1.2634,-1.2636,-1.2585,-1.2619,-1.2616,-1.2611,-1.2614,-1.2586,-1.2612,-1.2604,-1.2646,-1.2668,-1.2671,-1.2679,-1.2653,-1.275,-1.2759,-1.2768,-1.2798,-1.2811,-1.2663,-1.2662,-1.2662,-1.2661,0,-1.2717,-1.2736,-1.2764,-1.276,-1.2766,-1.2795,-1.2764,-1.2774,-1.2749,-1.2731,-1.2763,-1.2751,-1.2757,-1.2766,-1.2742,-1.2805,-1.279,-1.2757,-1.2708,-1.2787,-1.2815,-1.2826,-1.2669,-1.2667,-1.2666,-1.2665,0,0,-1.2858,-1.2832,-1.2843,-1.284,-1.2826,-1.284,-1.2867,-1.2872,-1.2882,-1.288,-1.2902,-1.2921,-1.2891,-1.2892,-1.2867,-1.2891,-1.2963,-1.2855,-1.2854,-1.2875,-1.3032,-1.3056,-1.307,-1.2942,-1.2944,-1.2945,-1.3032,0,-1.2945,-1.299,-1.2958,-1.3008,-1.3024,-1.2975,-1.2999,-1.2993,-1.2978,-1.299,-1.2973,-1.2987,-1.2945,-1.2946,-1.2967,-1.295,-1.2994,-1.2943,-1.2962,-1.2963,-1.2965,-1.3085,-1.3111,-1.3193,-1.3043,-1.3044,-1.3046,0,-1.3054,-1.3056,-1.3107,-1.3089,-1.3095,-1.3117,-1.3119,-1.3131,-1.3123,-1.311,-1.3112,-1.3081,-1.3107,-1.3059,-1.3094,-1.306,-1.3066,-1.3059,-1.3061,-1.3062,-1.3009,-1.3088,-1.3219,-1.3231,-1.3063,-1.3061,-1.306,0,-1.315,-1.3166,-1.3199,-1.3198,-1.3178,-1.3194,-1.3187,-1.3177,-1.3182,-1.3184,-1.3187,-1.3193,-1.3196,-1.3201,-1.3172,-1.314,-1.3211,-1.3161,-1.3201,-1.3202,-1.3218,-1.3218,-1.3352,-1.3223,-1.3223,-1.3223,-1.3222,0,-1.3252,-1.3285,-1.3242,-1.3262,-1.3298,-1.3261,-1.3298,-1.3285,-1.3277,-1.3294,-1.3253,-1.327,-1.3231,-1.3244,-1.3222,-1.3255,-1.3257,-1.3247,-1.3241,-1.325,-1.3252,-1.3253,-1.3247,-1.3226,-1.3225,-1.3224,-1.3224,0,-1.3366,-1.3338,-1.337,-1.3348,-1.3344,-1.3371,-1.3352,-1.337,-1.3352,-1.3374,-1.3377,-1.3349,-1.3362,-1.3334,-1.3344,-1.3329,-1.3375,-1.336,-1.3377,-1.3373,-1.3414,-1.3411,-1.3554,-1.357,-1.3432,-1.3433,-1.3434,0,-1.3432,-1.3456,-1.3437,-1.3445,-1.3439,-1.3453,-1.3458,-1.3423,-1.3429,-1.3423,-1.3442,-1.3451,-1.3457,-1.3481,-1.3462,-1.3469,-1.3454,-1.3503,-1.3454,-1.3463,-1.3454,-1.3453,-1.3455,-1.3513,-1.3515,-1.3516,-1.3517,0,-1.3552,-1.3537,-1.3545,-1.3549,-1.3555,-1.3557,-1.3555,-1.3564,-1.3527,-1.3537,-1.3549,-1.3554,-1.3564,-1.3574,-1.3577,-1.357,-1.3538,-1.3533,-1.3543,-1.3553,-1.3562,-1.3557,-1.3404,-1.353,-1.3529,-1.3528,-1.3527,-1.3527,-1.3644,-1.3663,-1.3652,-1.3662,-1.3657,-1.3657,-1.3672,-1.3655,-1.3665,-1.367,-1.3649,-1.3666,-1.3658,-1.3658,-1.3655,-1.3668,-1.3646,-1.366,-1.3663,-1.3667,-1.3674,-1.356,-1.3669,-1.3668,-1.3668,-1.3668,-1.3667,0,-1.3762,-1.3752,-1.3762,-1.376,-1.3769,-1.3737,-1.3734,-1.3743,-1.3758,-1.3753,-1.376,-1.3774,-1.3784,-1.3766,-1.3773,-1.3787,-1.3773,-1.379,-1.3788,-1.3787,-1.3693,-1.3684,-1.3802,-1.3802,-1.3802,-1.3802,-1.3802,-1.3801,-1.3824,-1.3854,-1.3838,-1.3866,-1.3856,-1.3872,-1.3873,-1.3872,-1.3868,-1.3886,-1.3893,-1.3881,-1.387,-1.3876,-1.3884,-1.3878,-1.3882,-1.3905,-1.3894,-1.3807,-1.3794,-1.3781,-1.3772,-1.3906,-1.3907,-1.3987,-1.3988,-1.3988]},{"header":{"parameterUnit":"m.s-1","parameterCategory":1,"la1":30.2991,"la2":30.254,"lo1":-89.0895,"lo2":-89.0444,"dy":0.0017,"dx":0.0017,"nx":28,"ny":28,"refTime":"2023-09-14T21:00:00:Z","depth":0,"parameterNumber":3,"parameterNumberName":"V-component_of_WINDS"},"data":[0,0,0,0,0,0,0,0,0,0,0,0,0,0,0,0,0,0,0,0,0,0,0,0,0,0,0,0,0,0,0,0,0,0,0,0,0,0,0,0,0,0,0,0,0,0,0,0,0,0,0,0,0,0,0,0,0,0,-0.6568,-0.6568,0,-0.6601,-0.6601,-0.6602,-0.6634,-0.6634,-0.6635,-0.6635,-0.6668,-0.6669,-0.6669,0,0,0,0,0,0,0,0,0,0,0,0,0,-0.653,-0.653,-0.6567,-0.6568,-0.6568,-0.6601,-0.6601,-0.6602,-0.6634,-0.6634,-0.6635,-0.6635,-0.6668,-0.6669,-0.6669,0,0,0,0,0,0,0,0,0,0,0,0,0,-0.6553,-0.653,-0.6567,-0.6588,-0.659,-0.6601,-0.6601,-0.6602,-0.6634,-0.6634,-0.6635,-0.6635,-0.6668,-0.6669,-0.6669,-0.6662,0,0,-0.6672,-0.6672,0,0,0,0,0,0,0,0,-0.6552,-0.6554,-0.6585,-0.6587,-0.6589,-0.6614,-0.66,-0.6622,-0.6633,-0.6617,-0.6635,-0.6636,-0.665,-0.6652,-0.6657,-0.6663,-0.6665,-0.6672,-0.6672,-0.6673,-0.6673,0,0,0,0,0,0,0,-0.655,-0.6553,-0.6581,-0.6585,-0.6588,-0.6595,-0.6599,-0.6605,-0.663,-0.6619,-0.6621,-0.6625,-0.6651,-0.6656,-0.6658,-0.6665,-0.6672,-0.6673,-0.6673,-0.6673,-0.6666,-0.6666,0,0,0,0,0,0,-0.6545,-0.6551,-0.658,-0.6582,-0.6572,-0.6596,-0.66,-0.6605,-0.663,-0.6634,-0.6624,-0.6626,-0.6654,-0.6657,-0.6659,-0.6651,-0.6673,-0.6673,-0.6674,-0.6667,-0.6666,-0.6666,0,0,0,0,0,0,-0.6544,-0.6548,-0.6578,-0.6567,-0.6572,-0.6596,-0.6601,-0.6606,-0.6611,-0.6634,-0.6638,-0.6625,-0.6655,-0.6658,-0.6661,-0.6653,-0.6674,-0.6674,-0.6668,-0.6667,-0.6666,-0.6635,0,0,0,0,0,0,-0.6543,-0.6547,-0.6545,-0.6567,-0.6572,-0.658,-0.6601,-0.6606,-0.6612,-0.6615,-0.6635,-0.6639,-0.6656,-0.666,-0.6662,-0.6654,-0.6675,-0.6669,-0.6667,-0.6666,-0.6637,-0.6634,-0.663,0,0,0,0,0,-0.6542,-0.6535,-0.6544,-0.6548,-0.657,-0.6579,-0.6582,-0.6601,-0.6611,-0.6609,-0.6624,-0.6639,-0.6653,-0.666,-0.6662,-0.6655,-0.6669,-0.6668,-0.6666,-0.6639,-0.6634,-0.6631,0,0,0,0,0,0,-0.6511,-0.6538,-0.6549,-0.6549,-0.6562,-0.6585,-0.6582,-0.6596,-0.6606,-0.6608,-0.6631,-0.6635,-0.6635,-0.6645,-0.6652,-0.6648,-0.6663,-0.6662,-0.6642,-0.6638,-0.6634,-0.6631,-0.6676,0,0,0,0,0,-0.6504,-0.651,-0.6533,-0.6531,-0.6537,-0.6558,-0.6563,-0.6577,-0.659,-0.6596,-0.6611,-0.6623,-0.663,-0.6635,-0.6643,-0.6639,-0.6644,-0.6635,-0.6632,-0.6629,-0.6628,-0.6626,-0.6622,-0.6661,-0.6661,-0.6661,0,0,-0.649,-0.6506,-0.6508,-0.6525,-0.6536,-0.6541,-0.6562,-0.6567,-0.657,-0.6596,-0.66,-0.6611,-0.6626,-0.6625,-0.6626,-0.6634,-0.6618,-0.6627,-0.6625,-0.6625,-0.6624,-0.662,-0.6617,-0.666,-0.666,-0.666,0,0,-0.6467,-0.648,-0.6479,-0.649,-0.6506,-0.6521,-0.652,-0.6541,-0.655,-0.6553,-0.6573,-0.6577,-0.6589,-0.6599,-0.6606,-0.6586,-0.66,-0.6588,-0.6569,-0.6567,-0.6564,-0.6561,-0.6553,-0.655,-0.6586,-0.6586,-0.6586,0,-0.6447,-0.6456,-0.6477,-0.648,-0.6486,-0.651,-0.6509,-0.6518,-0.6537,-0.654,-0.6549,-0.6565,-0.6577,-0.6578,-0.6573,-0.6578,-0.6578,-0.6585,-0.6563,-0.6561,-0.6558,-0.6551,-0.6548,-0.6585,-0.6585,-0.6585,-0.6585,0,-0.643,-0.6436,-0.6433,-0.645,-0.6457,-0.6457,-0.6478,-0.6482,-0.6495,-0.6508,-0.6511,-0.6526,-0.6537,-0.6539,-0.6552,-0.6542,-0.6546,-0.6559,-0.6574,-0.6553,-0.6546,-0.6543,-0.6582,-0.6583,-0.6583,-0.6584,0,0,-0.6389,-0.6417,-0.6416,-0.6423,-0.6443,-0.6448,-0.6449,-0.646,-0.6463,-0.6475,-0.6476,-0.6486,-0.6497,-0.6504,-0.6519,-0.6517,-0.6499,-0.6529,-0.653,-0.6522,-0.6488,-0.6478,-0.6474,-0.6508,-0.6508,-0.6507,-0.6486,0,-0.6369,-0.6373,-0.6392,-0.6391,-0.6395,-0.6418,-0.6419,-0.6431,-0.6443,-0.6449,-0.6462,-0.6468,-0.6483,-0.6488,-0.6487,-0.6501,-0.6492,-0.6503,-0.6509,-0.6509,-0.6504,-0.6471,-0.6461,-0.644,-0.6484,-0.6483,-0.6483,0,-0.6346,-0.6356,-0.6355,-0.6374,-0.6377,-0.6377,-0.6389,-0.6394,-0.6408,-0.6417,-0.6424,-0.644,-0.6442,-0.6457,-0.646,-0.6467,-0.6471,-0.6478,-0.6478,-0.6478,-0.6494,-0.647,-0.6434,-0.643,-0.6479,-0.648,-0.648,0,-0.6314,-0.6328,-0.6329,-0.6335,-0.6357,-0.6357,-0.6366,-0.6381,-0.6386,-0.6396,-0.6399,-0.6409,-0.6414,-0.6421,-0.6439,-0.6448,-0.6439,-0.6456,-0.6446,-0.6446,-0.6443,-0.6443,-0.6406,-0.6446,-0.6446,-0.6446,-0.6446,0,-0.6289,-0.6288,-0.6315,-0.6316,-0.6314,-0.6335,-0.6333,-0.6345,-0.6357,-0.636,-0.638,-0.6382,-0.6405,-0.641,-0.6424,-0.6424,-0.6426,-0.6433,-0.6436,-0.6431,-0.643,-0.6433,-0.6435,-0.6446,-0.6446,-0.6446,-0.6446,0,-0.6254,-0.6272,-0.6275,-0.6296,-0.6301,-0.6299,-0.6317,-0.6318,-0.6331,-0.6334,-0.6336,-0.6357,-0.6363,-0.6381,-0.6392,-0.6402,-0.6397,-0.6404,-0.6392,-0.6395,-0.6384,-0.6384,-0.6347,-0.6343,-0.6386,-0.6386,-0.6386,0,-0.6237,-0.6236,-0.6257,-0.626,-0.6268,-0.6274,-0.6279,-0.6299,-0.6304,-0.6319,-0.6318,-0.6326,-0.6334,-0.6342,-0.6358,-0.6366,-0.6374,-0.636,-0.6375,-0.6369,-0.6372,-0.6372,-0.6372,-0.6357,-0.6356,-0.6355,-0.6355,0,-0.6203,-0.6212,-0.6219,-0.6229,-0.6235,-0.6244,-0.6254,-0.6255,-0.6278,-0.6282,-0.6289,-0.6295,-0.6306,-0.6313,-0.6324,-0.6333,-0.6347,-0.635,-0.6348,-0.6342,-0.6335,-0.6338,-0.6383,-0.6351,-0.6351,-0.6352,-0.6352,-0.6352,-0.6176,-0.6176,-0.619,-0.6197,-0.6207,-0.6216,-0.6217,-0.6231,-0.6237,-0.6247,-0.6259,-0.6264,-0.6277,-0.6293,-0.6301,-0.6305,-0.6313,-0.631,-0.631,-0.6309,-0.6305,-0.6335,-0.6307,-0.6307,-0.6308,-0.6308,-0.6308,0,-0.6143,-0.6153,-0.616,-0.6173,-0.6178,-0.6192,-0.6203,-0.6206,-0.6211,-0.6222,-0.6228,-0.6236,-0.6243,-0.6259,-0.6267,-0.6267,-0.6274,-0.6268,-0.6268,-0.627,-0.6298,-0.6299,-0.6263,-0.6263,-0.6263,-0.6263,-0.6263,-0.6263,-0.6127,-0.6127,-0.6138,-0.6143,-0.6153,-0.6158,-0.6164,-0.6171,-0.618,-0.6187,-0.6193,-0.6204,-0.6217,-0.6226,-0.6233,-0.6237,-0.6239,-0.6231,-0.6238,-0.6264,-0.6268,-0.6272,-0.6273,-0.6232,-0.6232,-0.6209,-0.6209,-0.6209]}]]